Regional Weather Roundup
Issued by NWS State College, PA

Home | Current Version | Previous Version | Graphics & Text | Print | Product List | Glossary On
Versions: 1 2 3 4 5 6 7 8 9 10 11 12 13 14 15 16 17 18 19 20 21 22 23 24 25 26 27 28 29 30 31 32 33 34 35 36 37 38 39 40 41 42 43 44 45 46 47 48 49 50
000
ASUS41 KCTP 201610
RWRCTP

REGIONAL WEATHER ROUNDUP
NATIONAL WEATHER SERVICE STATE COLLEGE PA
1100 AM EST SAT DEC 20 2014

Note: "fair" indicates few or no clouds below 12,000 feet with no
significant weather and/or obstructions to visibility.

* = STATION THAT DOES NOT REPORT PRECIPITATION /E.G. RAIN...SNOW...ETC/
    THUNDER OR FOG.

PAZ002>004-007>009-013>016-020>023-029>032-201700-
WESTERN PENNSYLVANIA

CITY           SKY/WX    TMP DP  RH WIND       PRES   REMARKS
ERIE           CLOUDY    31  20  63 CALM      30.29F
MEADVILLE      CLOUDY    28  20  71 N5        30.24F
FRANKLIN*      CLOUDY    27  19  74 N3        30.25S
NEW CASTLE       N/A     28  19  69 CALM      30.29S
BEAVER COUNTY  CLOUDY    28  19  69 N3        30.27S
BUTLER*        CLOUDY    28  19  69 NW3       30.28S
PITTSBURGH INT CLOUDY    28  19  69 CALM      30.27S
PITTSBURGH     CLOUDY    28  16  60 CALM      30.25F
INDIANA*       CLOUDY    27  21  80 CALM      30.28S
LATROBE        CLOUDY    27  19  74 CALM      30.29
WASHINGTON CO* NOT AVBL
$$

PAZ004>006-010>012-017>019-024>028-033>037-041-042-045-046-049>053-201700-
CENTRAL PENNSYLVANIA

CITY           SKY/WX    TMP DP  RH WIND       PRES   REMARKS
BRADFORD       CLOUDY    22  17  81 N3        30.18F
DUBOIS         CLOUDY    25  20  81 N6        30.20S
CLEARFIELD     CLOUDY    25  18  74 VRB3      30.23F
JOHNSTOWN      CLOUDY    25  17  72 CALM      30.17S
ALTOONA        PTSUNNY   28  20  71 CALM      30.23F
STATE COLLEGE  CLOUDY    27  19  74 NW6       30.24F
WILLIAMSPORT   CLOUDY    32  20  61 NW5       30.28F
SELINSGROVE    CLOUDY    32  20  61 CALM      30.29F
FT INDIANTOWN  CLOUDY    32  20  61 NE6       30.28F
CAPITAL CITY   CLOUDY    33  20  58 NE7       30.30F
HARRISBURG     CLOUDY    32  20  61 N3        30.29F
YORK           CLOUDY    32  21  64 NE6       30.29S
$$

PAZ038>040-043-044-047-048-054-055-060>062-067>071-201700-
EASTERN PENNSYLVANIA

CITY           SKY/WX    TMP DP  RH WIND       PRES   REMARKS
SCRANTON       LGT SNOW  30  22  72 NW5       30.26S
MOUNT POCONO   CLOUDY    25  18  74 NW9       30.19F
ALLENTOWN      CLOUDY    33  20  58 CALM      30.29F
QUAKERTOWN*    CLOUDY    32  23  69 N5        30.29F
READING        CLOUDY    33  20  58 N7        30.28F
LANCASTER      CLOUDY    32  20  61 NE5       30.29F
COATESVILLE    CLOUDY    32  23  69 N5        30.27F
POTTSTOWN      CLOUDY    32  21  64 N6        30.30F
BLUE BELL      CLOUDY    34  23  64 NE3       30.29F
DOYLESTOWN     CLOUDY    31  21  66 CALM      30.29S
WILLOW GROVE   NOT AVBL
NORTH PHILA    CLOUDY    34  19  54 N7        30.32F
PHILADELPHIA   CLOUDY    34  20  56 NE9       30.31F
$$



USA.gov is the U.S. government's official web portal to all federal, state and local government web resources and services.